Location: Branche des Alpilles
(43.6087°N, 4.6976°E)
Time: 10:21:01
(UTC+00:00)

FENGYUN 1C DEB - Pass Details

Date: 28 June 2021
Orbit: 782 x 878 km, 99.7° (Epoch: 28 July)

Event Time Altitude Azimuth Distance (km) Brightness Sun altitude
Exits shadow 03:05:04 - 246° (WSW) 2,438 ? -8.8°
Reaches altitude 10° 03:05:34 10° 251° (WSW) 2,369 ? -8.8°
Maximum altitude 03:07:17 12° 270° (W) 2,256 ? -8.6°
Drops below altitude 10° 03:09:00 10° 290° (WNW) 2,361 ? -8.3°
Sets 03:13:09 0° 323° (NW) 3,285 ? -7.8°
